North Adams, MA

12:02 AM EST on February 22, 2017 (GMT -0500)
Harriman And West

Weather History for KAQW - March, 2013

Change the Weather History Date:

Tuesday, March 26, 2013

  Actual Average Record
Temperature  
Mean Temperature 35 °F -  
Max Temperature 44 °F 44 °F 72 °F (2004)
Min Temperature 25 °F 27 °F 10 °F (2001)
Degree Days  
Heating Degree Days 30    
Moisture  
Dew Point 20 °F    
Average Humidity 56    
Maximum Humidity 78    
Minimum Humidity 32    
Precipitation  
Precipitation 0.00 in - - ()
Sea Level Pressure  
Sea Level Pressure 29.72 in    
Wind  
Wind Speed 3 mph (West)    
Max Wind Speed 8 mph    
Max Gust Speed 16 mph    
Visibility 10 miles    
Events Snow    
Averages and records for this station are not official NWS values.
T = Trace of Precipitation, MM = Missing Value Source: NWS Daily Summary

Daily Weather History Graph

Daily Weather History Graph

Search for Another Location

Airport or City:

Trip Planner

Search our weather history database for the weather conditions in past years. The results will help you decide how hot, cold, wet, or windy it might be!

Date:

Astronomy

Mar. 26, 2013 Rise Set
Actual Time 6:45 AM EDT 7:12 PM EDT
Civil Twilight 6:16 AM EDT 7:40 PM EDT
Nautical Twilight 5:43 AM EDT 8:13 PM EDT
Astronomical Twilight 5:09 AM EDT 8:48 PM EDT
Moon 6:46 PM EDT (3/26) 6:00 AM EDT (3/26)
Length of Visible Light 13h 23m
Length of Day
12h 27m
Waxing Gibbous, 99% of the Moon is Illuminated
Mar 26
Waxing Gibbous
Mar 27
Full
Apr 3
Last Quarter
Apr 10
New
Apr 18
First Quarter

Hourly Weather History & Observations

Time (EDT) Temp. Windchill Dew Point Humidity Pressure Visibility Wind Dir Wind Speed Gust Speed Precip Events Conditions
12:52 AM 32.0 °F - 23.0 °F 69% 29.61 in 10.0 mi Calm Calm - N/A   Overcast
1:52 AM 33.1 °F - 21.9 °F 64% 29.61 in 10.0 mi Calm Calm - N/A   Overcast
2:52 AM 33.1 °F - 23.0 °F 66% 29.61 in 10.0 mi Calm Calm - N/A   Overcast
3:52 AM 34.0 °F 29.8 °F 24.1 °F 67% 29.62 in 10.0 mi West 4.6 mph - N/A   Overcast
4:52 AM 33.1 °F 27.7 °F 26.1 °F 75% 29.63 in 4.0 mi West 5.8 mph - 0.00 in Snow Light Snow
5:52 AM 34.0 °F 28.0 °F 24.1 °F 67% 29.64 in 10.0 mi West 6.9 mph - 0.00 in   Overcast
6:52 AM 34.0 °F 31.0 °F 21.9 °F 61% 29.67 in 10.0 mi West 3.5 mph - N/A   Overcast
7:52 AM 34.0 °F 28.8 °F 21.0 °F 59% 29.70 in 10.0 mi West 5.8 mph - N/A   Overcast
8:52 AM 35.1 °F 29.3 °F 21.0 °F 57% 29.71 in 10.0 mi WNW 6.9 mph - N/A   Overcast
9:52 AM 36.0 °F 29.6 °F 21.9 °F 57% 29.72 in 10.0 mi WNW 8.1 mph - N/A   Overcast
10:52 AM 35.1 °F 28.6 °F 21.9 °F 59% 29.74 in 10.0 mi NW 8.1 mph - N/A   Overcast
12:26 PM 37.4 °F 33.8 °F 21.2 °F 52% 29.74 in 10.0 mi Variable 4.6 mph - N/A   Overcast
12:50 PM 39.2 °F 34.2 °F 21.2 °F 49% 29.73 in 10.0 mi Variable 6.9 mph - N/A   Overcast
1:52 PM 39.9 °F 36.7 °F 19.0 °F 43% 29.76 in 10.0 mi Variable 4.6 mph - N/A   Overcast
2:52 PM 41.0 °F 35.8 °F 17.1 °F 38% 29.75 in 10.0 mi WNW 8.1 mph - N/A   Overcast
3:52 PM 42.1 °F 37.1 °F 15.1 °F 34% 29.75 in 10.0 mi West 8.1 mph 16.1 mph N/A   Overcast
4:52 PM 44.1 °F 40.8 °F 16.0 °F 32% 29.75 in 10.0 mi Variable 5.8 mph - N/A   Overcast
5:52 PM 43.0 °F 39.5 °F 15.1 °F 32% 29.76 in 10.0 mi West 5.8 mph - N/A   Mostly Cloudy
6:52 PM 41.0 °F 38.0 °F 15.1 °F 35% 29.78 in 10.0 mi WNW 4.6 mph - N/A   Mostly Cloudy
7:52 PM 34.0 °F - 19.0 °F 54% 29.80 in 10.0 mi Calm Calm - N/A   Clear
8:52 PM 30.0 °F - 19.9 °F 66% 29.81 in 10.0 mi Calm Calm - N/A   Clear
10:52 PM 26.1 °F - 19.0 °F 75% 29.85 in 10.0 mi Calm Calm - N/A   Clear
11:52 PM 25.0 °F - 19.0 °F 78% 29.86 in 10.0 mi Calm Calm - N/A   Clear